Wind_Speed
14 15 16 15 13 13 12 11 11 11 12 12 13 12 14 14 13 14 11 12 12 9 12 10 12 14 15 18 18 21 21 28 21 17 12 13 17 14 20 20 5 3 14 19 17
13 14 15 14 14 13 13 12 11 11 13 13 13 14 15 15 14 14 13 12 11 10 11 10 12 13 16 18 19 18 17 33 26 15 9 8 15 20 20 32 18 20 2 7 11
13 14 14 15 15 14 13 12 12 13 14 14 14 16 15 16 13 16 13 12 12 11 12 12 11 11 13 17 19 18 20 36 28 21 8 14 15 15 17 30 26 20 14 6 9
14 15 16 15 16 15 15 14 14 14 15 15 15 16 16 15 14 14 13 14 14 12 12 14 12 11 13 13 17 19 23 33 34 29 17 20 29 26 28 22 30 27 18 11 12
14 16 17 17 18 18 17 17 17 16 16 16 16 16 17 16 12 15 13 13 12 13 14 14 13 12 13 14 17 18 23 32 31 20 11 16 18 24 26 31 27 17 21 26 22
15 16 17 18 19 19 19 19 19 19 18 18 17 16 17 15 15 13 14 13 14 15 14 14 15 16 16 16 15 18 24 33 32 24 23 20 18 17 19 18 23 19 24 15 17
14 15 16 17 18 19 19 19 19 19 19 18 17 16 17 13 17 15 15 16 17 16 15 16 16 15 15 13 15 16 18 23 30 31 23 20 18 15 11 11 6 16 28 19 16
13 13 14 15 16 18 19 18 19 19 18 17 16 16 15 15 17 16 16 17 17 17 17 16 15 15 14 15 14 14 13 11 9 16 15 28 21 13 17 10 8 15 25 30 23
12 13 13 13 14 15 16 16 17 17 16 15 15 16 13 17 15 16 18 19 19 19 18 17 16 16 16 15 15 9 10 8 4 6 11 9 11 13 21 14 16 14 26 30 24
11 12 12 12 12 13 14 14 16 16 16 15 15 16 14 13 15 15 16 17 18 19 19 19 18 17 15 13 9 14 13 8 4 7 15 14 10 1 7 21 19 12 24 24 24
12 11 11 12 11 11 13 13 14 14 15 15 16 16 14 15 16 16 16 14 14 15 16 18 17 15 15 14 13 15 16 19 13 19 13 10 9 15 16 17 26 25 7 24 23
12 11 11 11 11 11 11 11 13 12 14 15 16 15 15 16 16 16 17 17 17 15 15 14 19 18 18 17 17 23 23 19 26 25 27 25 24 26 25 25 16 26 18 18 20
11 11 10 10 11 11 11 11 11 12 12 13 15 16 14 15 14 12 15 17 18 19 17 15 19 15 14 20 19 17 19 17 23 31 30 30 28 22 24 13 3 25 36 33 29
12 10 10 10 10 9 10 11 11 12 15 14 15 11 13 14 14 14 15 16 16 17 17 20 16 10 23 18 20 22 16 17 19 27 34 29 24 11 10 13 19 24 31 41 45
14 12 12 11 10 9 9 10 12 14 18 18 11 14 12 18 11 15 15 16 17 19 22 15 15 15 26 27 22 22 27 27 30 27 24 19 18 19 24 27 30 30 29 32 36
16 16 16 15 13 12 12 11 12 13 14 20 11 13 15 19 15 14 18 19 21 19 16 21 25 28 36 25 18 19 19 18 20 16 13 4 10 20 27 30 32 34 36 36 38
17 17 18 17 16 15 15 14 13 11 13 21 19 19 19 20 17 18 20 20 21 18 19 20 23 27 29 22 23 24 23 23 22 18 8 19 21 36 37 32 36 39 40 40 42
15 17 18 18 18 17 18 17 12 21 21 20 20 20 25 24 18 23 23 25 23 21 22 21 28 33 32 23 20 25 25 26 25 21 23 21 15 34 39 40 34 35 39 39 40
19 19 18 18 18 19 19 18 21 23 21 25 23 25 29 28 25 23 25 28 20 23 24 23 30 36 36 27 21 24 25 26 27 25 26 29 31 32 35 36 31 33 44 45 41
18 20 19 20 21 21 20 22 28 19 21 26 27 27 26 30 29 24 30 31 23 25 26 25 31 36 38 33 33 35 30 30 33 34 29 24 32 38 39 39 45 45 43 45 51
18 19 19 21 23 24 23 32 28 21 25 27 27 29 27 32 29 31 34 25 22 24 27 27 30 37 40 40 37 36 32 32 29 31 33 32 37 41 44 48 52 55 56 56 56
20 21 18 21 21 24 29 30 25 23 27 28 28 30 29 30 32 33 34 29 20 22 25 24 28 33 37 38 35 36 38 36 35 35 37 41 44 47 50 53 54 54 55 57 58
22 22 17 23 24 28 29 29 26 25 27 28 28 29 29 31 33 33 33 30 25 27 29 27 29 31 35 38 42 40 40 39 38 40 43 47 50 53 54 57 58 61 63 64 64
20 24 17 22 24 27 29 28 27 28 28 29 30 29 30 32 33 33 31 30 29 29 29 30 31 34 38 40 43 44 45 46 45 45 48 53 53 53 57 62 63 65 69 73 74
15 15 19 19 21 24 25 30 26 28 29 30 31 32 34 34 34 34 33 32 32 32 33 34 36 38 39 41 43 47 50 50 49 51 53 57 60 62 64 69 70 71 74 76 78
14 16 20 18 21 23 26 29 29 24 26 28 30 33 36 36 36 36 35 35 36 38 41 42 41 40 40 42 46 46 47 52 53 54 56 59 61 61 64 64 69 68 71 68 68
15 18 20 22 24 24 24 27 27 26 28 29 30 35 32 33 34 36 38 38 38 38 40 41 41 42 43 46 44 47 51 50 51 53 54 53 52 51 50 51 45 44 47 44 43
Wind_Direction
234 236 235 237 239 242 241 240 241 244 243 238 239 239 240 240 239 241 235 230 237 228 233 223 222 215 209 208 202 208 197 173 123 88 91 320 319 301 289 290 266 316 291 293 311
239 237 237 237 240 241 241 242 242 245 246 243 241 241 241 242 238 242 236 233 233 232 227 228 227 222 211 213 210 206 188 168 143 112 120 183 243 278 286 272 295 257 33 331 331
246 243 239 239 241 241 244 244 243 246 250 247 245 244 244 244 242 243 240 237 232 232 224 224 228 218 227 214 214 208 178 186 164 162 168 238 235 238 279 295 276 261 151 126 5
248 248 247 243 244 241 243 248 249 248 248 251 250 250 248 246 236 241 236 234 231 229 226 226 224 216 215 212 211 209 190 199 188 181 190 228 242 239 250 271 264 264 290 208 260
252 251 249 248 245 245 245 246 249 251 251 253 252 253 250 247 238 242 237 235 236 234 230 226 225 221 214 208 211 207 197 209 199 192 216 245 237 244 253 254 268 261 319 320 290
255 254 254 251 249 248 245 246 247 249 251 251 248 246 247 245 239 234 238 237 236 233 230 227 226 225 220 222 212 206 204 213 215 211 213 232 262 253 234 248 293 323 306 316 308
256 254 253 251 250 249 248 248 249 250 249 249 249 247 247 241 238 242 235 235 235 233 232 231 233 237 241 228 217 218 225 216 220 221 243 240 248 231 207 239 295 308 279 276 286
263 258 256 254 250 247 247 244 247 247 246 249 250 249 247 242 247 242 242 241 240 239 236 234 234 239 240 233 246 243 233 250 250 251 259 244 249 223 180 267 265 290 294 298 316
265 262 260 257 254 250 248 245 245 246 248 248 249 250 243 244 246 245 243 243 243 243 245 245 244 244 244 244 243 241 224 233 223 317 263 288 295 244 183 203 212 264 280 294 309
265 261 261 259 257 255 250 246 246 245 246 249 250 250 252 252 242 242 245 245 244 243 242 244 245 246 250 251 260 226 220 223 280 6 295 298 314 308 233 203 212 216 256 272 288
266 262 259 259 257 257 257 254 253 252 250 249 249 253 251 249 248 245 245 244 243 240 238 242 247 244 243 238 225 214 203 220 190 213 212 207 260 261 247 236 214 214 271 261 265
260 261 259 258 255 254 254 255 252 251 252 251 251 253 247 247 243 244 245 241 239 240 236 234 234 229 225 224 228 212 234 243 200 204 211 217 221 230 232 236 277 225 207 250 285
254 254 253 250 248 249 254 251 255 253 252 252 246 250 249 249 248 243 241 238 237 233 232 226 228 232 239 241 248 250 242 243 233 225 226 229 237 247 239 224 250 226 228 222 228
248 247 246 245 252 252 250 255 257 260 258 240 247 252 249 256 247 233 237 238 235 231 236 228 210 217 258 238 246 241 245 229 231 229 235 241 255 261 239 232 220 210 211 221 228
246 242 244 249 251 253 256 257 257 257 262 263 258 250 254 254 259 247 244 240 233 233 236 213 195 228 257 242 241 229 224 230 239 247 261 262 264 241 221 228 233 240 237 241 231
247 245 247 250 255 256 256 257 260 262 258 264 260 255 256 258 256 248 245 242 241 240 238 252 217 214 236 259 261 257 258 256 257 261 268 117 228 237 230 226 230 241 249 249 253
247 247 249 250 254 255 256 257 260 262 255 260 266 270 265 263 264 258 247 247 247 242 236 225 230 252 252 249 256 258 254 247 240 222 198 253 229 239 238 232 233 238 243 246 251
248 249 251 251 250 249 253 255 249 222 225 253 267 272 275 265 263 263 253 243 245 240 240 230 230 246 254 257 250 259 254 254 253 233 209 251 235 230 231 236 236 223 233 238 245
251 251 250 248 248 252 253 254 247 254 257 262 271 272 267 268 267 260 262 260 246 241 235 227 236 245 250 246 244 248 246 257 261 248 236 258 266 256 262 268 258 241 239 232 234
249 249 247 249 249 252 256 255 252 262 265 259 261 261 262 269 262 262 256 257 252 250 246 232 236 243 247 249 256 260 259 259 261 262 260 256 255 256 257 266 265 262 261 249 238
249 250 249 248 252 255 253 251 267 265 261 257 258 259 261 264 269 263 262 260 262 249 249 245 239 248 257 260 259 265 260 255 255 261 261 246 247 252 258 256 255 259 260 262 265
252 253 251 260 254 252 252 261 266 266 256 259 257 256 256 258 261 263 268 272 260 256 252 251 248 249 255 264 266 260 259 260 264 262 265 265 267 267 266 265 266 268 266 264 266
255 259 252 255 255 256 261 267 268 260 258 258 259 259 258 255 256 259 263 267 266 259 257 255 255 257 260 263 266 266 270 272 270 268 268 267 270 275 277 278 279 279 279 278 275
258 263 260 258 259 261 267 266 262 263 261 258 257 257 256 257 257 260 260 262 261 259 259 262 262 262 265 269 272 274 274 272 272 274 273 274 275 275 273 272 272 274 276 277 277
265 269 266 261 265 265 268 267 264 259 262 260 259 257 255 257 258 259 261 261 262 264 266 267 269 269 269 269 269 273 275 277 280 280 280 278 277 277 276 276 277 277 276 275 276
276 271 271 271 263 260 260 269 273 271 263 259 258 258 257 259 263 264 267 267 265 265 265 268 271 270 268 266 271 273 274 277 280 280 280 280 281 282 283 284 283 284 284 285 284
288 283 278 272 273 273 269 269 271 268 266 265 262 263 266 268 268 264 265 267 267 268 269 270 270 271 270 274 275 272 274 277 277 278 282 286 289 290 293 296 299 295 293 295 293
Height
5852 5854 5856 5858 5860 5861 5862 5863 5864 5865 5867 5868 5869 5870 5871 5873 5874 5876 5878 5879 5879 5881 5882 5884 5885 5886 5889 5890 5892 5894 5896 5903 5902 5905 5912 5909 5901 5903 5905 5905 5903 5907 5911 5908 5907
5849 5851 5853 5855 5857 5858 5860 5861 5862 5863 5864 5865 5867 5868 5869 5870 5872 5873 5876 5876 5877 5879 5880 5882 5883 5884 5886 5888 5890 5892 5897 5899 5899 5903 5905 5912 5907 5900 5905 5904 5904 5909 5906 5906 5905
5847 5849 5850 5852 5853 5855 5856 5858 5859 5860 5862 5863 5864 5865 5866 5868 5871 5870 5873 5874 5875 5877 5878 5879 5880 5882 5884 5885 5888 5892 5898 5895 5895 5899 5902 5906 5910 5907 5905 5898 5905 5891 5894 5901 5903
5844 5846 5847 5849 5850 5851 5853 5854 5856 5857 5859 5860 5861 5862 5863 5866 5869 5868 5869 5871 5873 5874 5875 5877 5878 5880 5881 5883 5885 5888 5893 5894 5894 5895 5897 5902 5903 5907 5905 5907 5900 5899 5900 5899 5899
5841 5842 5844 5845 5846 5848 5849 5851 5853 5854 5855 5856 5857 5859 5860 5863 5866 5865 5867 5868 5869 5871 5873 5874 5876 5877 5879 5880 5882 5885 5889 5890 5890 5891 5895 5896 5900 5900 5899 5901 5897 5900 5897 5900 5903
5838 5839 5840 5841 5842 5844 5845 5848 5849 5850 5851 5853 5854 5856 5857 5860 5862 5863 5864 5865 5867 5869 5870 5871 5873 5874 5875 5877 5878 5881 5882 5886 5887 5888 5890 5892 5894 5895 5898 5898 5897 5894 5896 5900 5900
5835 5835 5836 5837 5839 5840 5841 5843 5845 5846 5848 5849 5850 5852 5854 5857 5857 5859 5861 5863 5864 5866 5867 5868 5869 5871 5873 5874 5875 5877 5879 5881 5882 5884 5887 5889 5889 5891 5894 5896 5896 5895 5895 5899 5901
5831 5832 5833 5834 5835 5836 5837 5839 5841 5842 5844 5845 5847 5848 5851 5852 5853 5856 5857 5859 5861 5863 5864 5865 5866 5869 5870 5871 5873 5875 5877 5880 5883 5884 5886 5885 5886 5889 5892 5889 5894 5893 5892 5893 5893
5828 5829 5829 5830 5831 5832 5834 5835 5836 5838 5839 5841 5843 5844 5847 5848 5851 5852 5853 5856 5857 5859 5860 5862 5864 5865 5867 5869 5871 5873 5873 5876 5879 5881 5882 5882 5884 5888 5888 5891 5897 5894 5893 5889 5889
5825 5826 5827 5828 5828 5829 5830 5831 5832 5834 5836 5838 5839 5842 5844 5846 5845 5847 5849 5852 5853 5856 5858 5859 5860 5862 5863 5865 5870 5869 5869 5871 5873 5878 5878 5879 5881 5885 5889 5889 5894 5897 5896 5890 5890
5823 5823 5824 5825 5826 5826 5828 5829 5831 5833 5832 5834 5835 5836 5840 5841 5842 5844 5846 5848 5850 5852 5852 5854 5858 5859 5860 5862 5864 5864 5863 5865 5871 5872 5875 5874 5879 5880 5883 5885 5888 5892 5894 5894 5893
5820 5821 5822 5822 5823 5824 5825 5826 5826 5828 5829 5830 5831 5832 5835 5836 5839 5840 5842 5844 5846 5847 5848 5851 5851 5853 5855 5855 5855 5858 5860 5864 5866 5867 5870 5872 5874 5875 5879 5883 5888 5892 5893 5891 5892
5817 5818 5819 5819 5821 5822 5822 5823 5823 5824 5826 5827 5828 5829 5832 5833 5835 5837 5838 5838 5840 5842 5844 5847 5847 5846 5850 5851 5854 5856 5858 5861 5864 5864 5864 5865 5868 5874 5880 5883 5886 5880 5878 5875 5874
5815 5815 5816 5817 5819 5819 5819 5820 5820 5821 5821 5825 5825 5827 5828 5829 5831 5833 5833 5835 5836 5839 5840 5842 5842 5844 5843 5847 5849 5849 5854 5853 5853 5855 5858 5861 5863 5871 5867 5865 5864 5863 5862 5864 5867
5812 5813 5813 5814 5815 5817 5817 5817 5817 5817 5817 5819 5823 5823 5825 5825 5829 5829 5830 5831 5832 5833 5834 5838 5839 5840 5839 5838 5842 5844 5842 5844 5846 5849 5852 5857 5859 5855 5853 5853 5855 5856 5859 5861 5862
5808 5809 5810 5811 5813 5814 5814 5814 5815 5817 5813 5814 5819 5820 5821 5820 5823 5825 5825 5827 5828 5829 5832 5831 5831 5831 5830 5834 5838 5839 5841 5841 5843 5846 5849 5849 5848 5844 5845 5846 5848 5849 5851 5854 5854
5804 5805 5806 5807 5809 5810 5810 5811 5814 5814 5811 5811 5815 5814 5816 5818 5819 5819 5820 5822 5824 5827 5827 5827 5828 5826 5827 5831 5831 5832 5834 5836 5837 5838 5844 5836 5835 5831 5833 5834 5836 5839 5841 5842 5843
5799 5801 5802 5803 5804 5805 5806 5808 5810 5805 5805 5807 5811 5811 5809 5811 5815 5814 5814 5815 5818 5820 5821 5823 5821 5817 5820 5825 5828 5825 5827 5827 5828 5832 5832 5824 5824 5818 5822 5826 5827 5828 5832 5835 5836
5794 5796 5797 5798 5799 5800 5801 5802 5802 5802 5805 5803 5806 5805 5805 5806 5808 5808 5809 5809 5814 5814 5816 5817 5814 5810 5812 5818 5820 5818 5819 5822 5822 5825 5827 5817 5814 5814 5812 5814 5818 5821 5822 5823 5824
5789 5790 5792 5793 5794 5795 5797 5796 5793 5800 5799 5799 5799 5800 5801 5797 5799 5802 5800 5801 5807 5808 5809 5811 5810 5808 5806 5809 5811 5811 5816 5816 5813 5813 5817 5811 5807 5805 5807 5807 5806 5805 5808 5810 5813
5784 5785 5786 5787 5788 5790 5790 5785 5790 5794 5792 5793 5793 5792 5795 5791 5794 5792 5790 5799 5801 5802 5801 5803 5804 5802 5800 5800 5802 5804 5806 5806 5808 5806 5803 5802 5801 5800 5800 5798 5796 5796 5797 5798 5798
5778 5779 5781 5781 5783 5781 5780 5781 5785 5787 5785 5785 5785 5785 5786 5786 5786 5786 5787 5790 5795 5793 5794 5796 5796 5795 5793 5790 5793 5792 5792 5795 5797 5799 5796 5790 5790 5787 5785 5785 5786 5788 5789 5789 5787
5773 5773 5775 5773 5774 5773 5774 5775 5777 5777 5778 5778 5779 5779 5779 5779 5780 5780 5781 5783 5786 5786 5785 5787 5787 5786 5784 5783 5779 5782 5784 5785 5787 5787 5784 5777 5779 5776 5777 5775 5774 5772 5769 5767 5767
5767 5767 5770 5768 5767 5767 5767 5768 5768 5769 5769 5770 5771 5771 5770 5770 5771 5773 5774 5775 5776 5777 5777 5778 5778 5776 5774 5773 5772 5772 5771 5771 5775 5776 5774 5768 5771 5774 5765 5759 5757 5756 5750 5745 5744
5763 5763 5761 5762 5762 5760 5761 5759 5761 5761 5761 5762 5762 5762 5761 5762 5763 5764 5766 5767 5767 5768 5768 5768 5768 5766 5764 5762 5759 5758 5756 5758 5763 5760 5758 5753 5750 5749 5748 5742 5740 5738 5732 5727 5724
5759 5758 5756 5757 5755 5755 5754 5751 5751 5755 5754 5753 5753 5751 5750 5753 5755 5756 5757 5757 5757 5757 5757 5757 5757 5754 5751 5748 5749 5751 5746 5745 5750 5745 5741 5736 5733 5729 5726 5721 5719 5714 5706 5702 5698
5754 5753 5752 5750 5749 5748 5748 5746 5745 5745 5745 5744 5744 5741 5744 5745 5745 5744 5744 5746 5746 5746 5745 5745 5744 5741 5737 5737 5736 5737 5735 5735 5736 5732 5726 5722 5718 5713 5709 5703 5702 5696 5688 5683 5680